Regional Weather Roundup
Issued by NWS Grand Forks, ND

Home | Current Version | Previous Version | Graphics & Text | Print | Product List | Glossary On
Versions: 1 2 3 4 5 6 7 8 9 10 11 12 13 14 15 16 17 18 19 20 21 22 23 24 25 26 27 28 29 30 31 32 33 34 35 36 37 38 39 40 41 42 43 44 45 46 47 48 49 50
000
ASUS43 KFGF 171231
RWRFGF
PRAIRIE TO PINES  WEATHER ROUNDUP
NATIONAL WEATHER SERVICE EASTERN NORTH DAKOTA/GRAND FORKS ND
700 AM CDT WED SEP 17 2014

 **SATELLITE DATA USED TO AUGMENT SKY COVER AT AUTOMATED STATIONS**
 *****  WEATHER ACROSS EASTERN NORTH DAKOTA  *****

CITY           SKY/WX    TMP DP  RH WIND       PRES   REMARKS
GRAND FORKS    PTCLDY    41  39  93 W3        29.93R
6HR MIN TEMP:  41; 6HR MAX TEMP:  49;

GRAND FRKS AFB CLEAR     42  42  99 NW3       29.94R
GRAND FRKS NWS   N/A     43 N/A N/A MISG        N/A
DEVILS LAKE    CLEAR     45  37  76 CALM      29.93R
6HR MIN TEMP:  45; 6HR MAX TEMP:  54;

FARGO          CLEAR     43  41  93 CALM      29.92R FOG
WAHPETON ARPT  SUNNY     43  41  93 CALM      29.92R
$$

 ***** WEATHER ACROSS CENTRAL AND WESTERN NORTH DAKOTA  *****

CITY           SKY/WX    TMP DP  RH WIND       PRES   REMARKS
BISMARCK       CLEAR     40  40 100 CALM      29.95S
6HR MIN TEMP:  37; 6HR MAX TEMP:  47;

MINOT          CLEAR     47  40  76 SW5       29.92R
6HR MIN TEMP:  45; 6HR MAX TEMP:  50;

JAMESTOWN      CLEAR     43  40  89 W3        29.93R
6HR MIN TEMP:  41; 6HR MAX TEMP:  46;

MINOT AFB      CLEAR     44  41  90 N10G18    29.94R
GARRISON         N/A     40  38  93 N5        29.94R
WILLISTON      CLEAR     39  35  86 CALM      29.94R
6HR MIN TEMP:  36; 6HR MAX TEMP:  45;

DICKINSON      PTCLDY    44  40  85 CALM      29.94R
6HR MIN TEMP:  41; 6HR MAX TEMP:  52;

HETTINGER      PTCLDY    37  35  92 W5        29.96R
6HR MIN TEMP:  36; 6HR MAX TEMP:  48;

$$

 *****  OTHER AIRPORT OBSERVATIONS IN OUR AREA  *****

CITY           SKY/WX    TMP DP  RH WIND       PRES   REMARKS
WALHALLA         N/A     46  46 100 N9        29.99R
GRAFTON AIRPOR FAIR      46  45  93 N14       29.95R
VALLEY CITY AR FAIR      41  41 100 NW5       29.93R
CANDO          FAIR      39  39 100 N12       29.97R
CAVALIER APRT  FAIR      45  43  93 N12       29.97R
GWINNER        SUNNY     45  45 100 CALM      29.93R
SHEYENNE NWR     N/A     41  41  99 NW2       29.95S
ROLLA          CLOUDY    43  43 100 NE9       30.00R FOG
 ***** THE ABOVE OBSERVATIONS ARE NON NWS ARE NOT QUALITY
       CONTROLLED AND MAY MIS-REPORT RAIN FOR SNOW...
$$

  *****  WEATHER ACROSS NORTHERN MINNESOTA  *****

CITY           SKY/WX    TMP DP  RH WIND       PRES   REMARKS
FLAG ISLAND    CLOUDY    46  45  93 E8        29.96R
WARROAD        CLOUDY    52  46  82 NE8       29.95R
ROSEAU         PTCLDY    46  43  87 N10       29.95R
HALLOCK        PTCLDY    46  45  93 N8        29.95R
THF RVR FALLS  PTCLDY    43  39  87 SE6       29.93S
6HR MIN TEMP:  43; 6HR MAX TEMP:  50;

BAUDETTE       CLOUDY    50  47  89 NE7       29.92R
6HR MIN TEMP:  48; 6HR MAX TEMP:  54; 6HR PCP: TRACE;

WASKISH        PTCLDY    41  39  93 CALM      29.93S
CROOKSTON      PTCLDY    43  39  87 SE3       29.94S
STEPHEN NDAWN    N/A     41  39  93 NW3         N/A
GREENBUSH NDAW   N/A     43  41  93 N3          N/A
$$
  *****  WEATHER ACROSS CENTRAL AND WEST MINNESOTA  *****

CITY           SKY/WX    TMP DP  RH WIND       PRES   REMARKS
FOSSTON        CLEAR     39  37  93 CALM      29.95R
BEMIDJI        PTCLDY    41  41  97 N9        29.95R
PARK RAPIDS    PTCLDY    42  39  89 CALM      29.93R
6HR MIN TEMP:  40; 6HR MAX TEMP:  48;

ELBOW LAKE     FAIR      50  48  92 SE3       29.92R
6HR MIN TEMP:  49; 6HR MAX TEMP:  53;

WADENA         FOG       39  39 100 CALM      29.92S VSB 3/4
DETROIT LAKES  CLEAR     46  45  93 CALM      29.93S
MOORHEAD       CLEAR     45  45 100 CALM      29.92S
FERGUS FALLS   CLEAR     50  46  87 S3        29.92S
MORRIS MN      CLEAR     46  45  93 SE5       29.91S FOG
STAPLES        CLEAR     41  39  93 CALM      29.93R
$$
  *****  WEATHER ELSEWHERE ACROSS MINNESOTA  *****

CITY           SKY/WX    TMP DP  RH WIND       PRES   REMARKS
DULUTH         PTCLDY    48  41  76 W10       29.92S
6HR MIN TEMP:  46; 6HR MAX TEMP:  50;

INTRNTL FALLS  CLOUDY    51  48  89 N7        29.93R
6HR MIN TEMP:  47; 6HR MAX TEMP:  53;

ELY            MOCLDY    48  45  87 SW5       29.92S
CLOQUET        MOCLDY    48  41  76 W6        29.93R
WHEATON        CLEAR     39  39 100 SE3       29.93S FOG
BRAINERD       CLEAR     42  41  96 CALM      29.94R FOG
6HR MIN TEMP:  41; 6HR MAX TEMP:  47;

HIBBING        PTCLDY    35  33  92 CALM      29.92S
6HR MIN TEMP:  35; 6HR MAX TEMP:  45;

ALEXANDRIA     CLEAR     47  46  97 CALM      29.93S
6HR MIN TEMP:  47; 6HR MAX TEMP:  53;

SAINT CLOUD    CLEAR     47  44  90 CALM      29.93S
6HR MIN TEMP:  47; 6HR MAX TEMP:  56;

MINNEAPOLIS    CLOUDY    57  48  72 VRB6      29.95S
6HR MIN TEMP:  55; 6HR MAX TEMP:  58;

$$

  *****  WEATHER ACROSS SOUTH DAKOTA  *****

CITY           SKY/WX    TMP DP  RH WIND       PRES   REMARKS
SIOUX FALLS    PTCLDY    49  48  97 CALM      29.92R
6HR MIN TEMP:  49; 6HR MAX TEMP:  60;

BROOKINGS      NOT AVBL
WATERTOWN      CLEAR     47  45  93 CALM      29.92R FOG
6HR MIN TEMP:  47; 6HR MAX TEMP:  56;

HURON          FOG       46  45  96 CALM      29.91R VSB 1/2
6HR MIN TEMP:  47; 6HR MAX TEMP:  56;

SISSETON         N/A     49  48  97 NE3       29.90R
ABERDEEN       FOG       40  40 100 CALM      29.92S VSB 1/4
6HR MIN TEMP:  39; 6HR MAX TEMP:  49;

MITCHELL       CLEAR     46  46 100 SE5       29.91S FOG
PIERRE         CLEAR     48  48 100 CALM      29.90R
6HR MIN TEMP:  46; 6HR MAX TEMP:  57;

MOBRIDGE       CLEAR     45  45 100 N3        29.90S
RAPID CITY     CLEAR     53  39  59 NW8       29.95R
6HR MIN TEMP:  50; 6HR MAX TEMP:  58;

$$

  *****  SOME WEATHER IN NEARBY STATES *****

CITY           SKY/WX    TMP DP  RH WIND       PRES   REMARKS
GLASGOW MT     PTCLDY    50  41  71 SE5       29.90R
6HR MIN TEMP:  49; 6HR MAX TEMP:  57;

GREAT FALLS MT PTCLDY    57  45  64 SW8       29.90S
6HR MIN TEMP:  53; 6HR MAX TEMP:  64; 6HR PCP: TRACE;

CHEYENNE WY    CLEAR     51  38  60 W10       30.12S
6HR MIN TEMP:  50; 6HR MAX TEMP:  65;

SCOTTSBLUFF NE PTCLDY    51  47  86 N3        29.98R
6HR MIN TEMP:  50; 6HR MAX TEMP:  59;

OMAHA NE       PTCLDY    58  52  80 CALM      29.93F
6HR MIN TEMP:  57; 6HR MAX TEMP:  63;

DES MOINES IA  CLOUDY    58  50  75 SE5       29.96F
6HR MIN TEMP:  54; 6HR MAX TEMP:  58;

DAVENPORT IA   CLEAR     46  43  89 SE3       30.03S
6HR MIN TEMP:  45; 6HR MAX TEMP:  48;

CHICAGO IL     MOCLDY    48  44  86 S3        30.05R
6HR MIN TEMP:  48; 6HR MAX TEMP:  55;

EAU CLAIRE WI  MOCLDY    46  43  89 CALM      29.97S
6HR MIN TEMP:  41; 6HR MAX TEMP:  46;

LA CROSSE WI   CLOUDY    50  46  86 SE6       30.01R
6HR MIN TEMP:  47; 6HR MAX TEMP:  50;

$$

  *****  SOME NATIONAL WEATHER *****

CITY           SKY/WX    TMP DP  RH WIND       PRES   REMARKS
LA GUARDIA NY  MOSUNNY   61  48  62 CALM      30.05R
6HR MIN TEMP:  59; 6HR MAX TEMP:  63;

RALEIGH NC     PTSUNNY   67  61  81 NE7       29.99R
6HR MIN TEMP:  67; 6HR MAX TEMP:  70;

ATLANTA GA     CLEAR     67  64  90 NW7       29.99R
6HR MIN TEMP:  67; 6HR MAX TEMP:  72;

NEW ORLEANS LA MOCLDY    74  71  91 CALM      29.96S
6HR MIN TEMP:  73; 6HR MAX TEMP:  77;

OKLAHOMA CITY  MOCLDY    70  67  90 S5        29.96F
6HR MIN TEMP:  69; 6HR MAX TEMP:  73;

ALBUQUERQUE NM CLOUDY    62  55  77 CALM      30.17S
6HR MIN TEMP:  61; 6HR MAX TEMP:  63;

SALT LAKE CITY MOCLDY    70  44  39 SE13      29.94S
6HR MIN TEMP:  69; 6HR MAX TEMP:  75;




USA.gov is the U.S. government's official web portal to all federal, state and local government web resources and services.